Miscellaneous Local Product
Issued by NWS Hastings, NE

Home | Current Version | Previous Version | Graphics & Text | Print | Product List | Glossary On
Versions: 1 2 3 4 5 6 7 8 9 10 11 12 13 14 15 16 17 18 19 20 21 22 23 24 25 26 27 28 29 30 31 32 33 34 35 36 37 38 39 40 41 42 43 44 45 46 47 48 49 50
000
AXUS43 KGID 050302
MISGRI

GID CWA HOURLY WEATHER ROUNDUP
NATIONAL WEATHER SERVICE HASTINGS NE
1000 PM CDT FRI SEP 04 2015

NOTE: "FAIR" INDICATES FEW OR NO CLOUDS BELOW 12,000 FEET WITH NO
SIGNIFICANT WEATHER AND/OR OBSTRUCTIONS TO VISIBILITY.

...SOUTH CENTRAL NEBRASKA...

CITY           SKY/WX    TMP DP  RH WIND       PRES   REMARKS
GRAND ISLAND   CLEAR     80  66  62 SE13      29.86R
HASTINGS       CLEAR     82  65  56 S13       29.87R
KEARNEY        CLEAR     79  63  57 SE13      29.85R
ORD            CLEAR     74  67  78 E3        29.83R
YORK           CLEAR     79  66  65 S13       29.88R
AURORA         CLEAR     79  66  64 SE13G18   29.87R
LEXINGTON      PTCLDY    78  65  65 SE6       29.84R
HOLDREGE       CLEAR     84  59  42 S16       29.86R
HEBRON         CLEAR     81  64  55 S12G18    29.89R

...NEBRASKA PANHANDLE...

CITY           SKY/WX    TMP DP  RH WIND       PRES   REMARKS
CHADRON        MOCLDY    71  50  47 CALM      29.81R
ALLIANCE       MOCLDY    74  48  39 SE9       29.87R
SCOTTSBLUFF    CLOUDY    75  52  44 E3        29.87R
SIDNEY         MOCLDY    76  47  35 SE8       29.91R

...WESTERN AND NORTH CENTRAL NEBRASKA...

CITY           SKY/WX    TMP DP  RH WIND       PRES   REMARKS
VALENTINE      MOCLDY    81  62  52 S12       29.82R
AINSWORTH      PTCLDY    77  63  62 S8        29.84R
ONEILL         PTCLDY    80  70  73 SE6       29.84R
BROKEN BOW     PTCLDY    71  66  84 N3        29.84R
IMPERIAL       MOCLDY    75  55  49 SE5       29.86R
NORTH PLATTE   MOCLDY    70  62  76 E6        29.85R
MCCOOK         PTCLDY    85  56  37 S13       29.83R

...EASTERN NEBRASKA...

CITY           SKY/WX    TMP DP  RH WIND       PRES   REMARKS
NORFOLK        CLEAR     79  67  66 SE10      29.85R
SO SIOUX CITY  PTCLDY    77  70  79 SE10      29.87R
TEKAMAH        PTCLDY    77  70  79 SE10      29.88R
COLUMBUS       CLEAR     79  64  61 SE7       29.87R
ALBION         CLEAR     77  67  71 SE8       29.85R
OMAHA EPPLEY   MOCLDY    82  69  64 SE17      29.90R
OFFUTT AFB     PTCLDY    77  69  76 SE8       29.91R
MILLARD        PTCLDY    80  69  68 SE8       29.90R
LINCOLN        CLEAR     82  66  58 SE14      29.89R
NEBRASKA CITY  CLEAR     77  62  59 S10       29.93R
BEATRICE       CLEAR     81  67  61 SE10      29.90R
FALLS CITY     CLEAR     76  68  76 SE7       29.93R

...NORTHERN KANSAS...

CITY           SKY/WX    TMP DP  RH WIND       PRES   REMARKS
GOODLAND       MOCLDY    79  52  38 S10       29.89R
HILL CITY      PTCLDY    86  59  39 S12       29.86R
NORTON         CLEAR     81  48  32 SE8       29.85R
PHILLIPSBURG   CLEAR     90  61  37 SE13G21   29.85R
SMITH CENTER   CLEAR     82  63  51 SE16      29.87R
HAYS           CLEAR     84  61  45 SE16      29.88R
RUSSELL        CLEAR     85  61  44 S17G26    29.87R
CONCORDIA      CLEAR     82  66  58 S16       29.90R
SALINA         CLEAR     83  66  56 S13       29.90R
TOPEKA         CLEAR     80  69  69 SE9       29.95R



USA.gov is the U.S. government's official web portal to all federal, state and local government web resources and services.